This is the latest recevied weather packets stored in our database for station/object KN6ETB-1. If no packets are shown the sender has not sent any weather packets the latest 10 day(s).
| Time | Temp. | Humidity | Pressure | Rain* | Wind** | Luminosity | Snow |
|---|---|---|---|---|---|---|---|
| 1777494117 | 25.56° C | 45% | 1014.6 hPa | 0 mm | - | 641 W/m² | - |
| 1777493815 | 25.56° C | 45% | 1014.8 hPa | 0 mm | - | 585 W/m² | - |
| 1777493513 | 25° C | 45% | 1014.8 hPa | 0 mm | - | 622 W/m² | - |
| 1777493210 | 24.44° C | 45% | 1014.8 hPa | 0 mm | - | 707 W/m² | - |
| 1777492906 | 25° C | 44% | 1014.9 hPa | 0 mm | - | 739 W/m² | - |
| 1777492603 | 25° C | 45% | 1014.9 hPa | 0 mm | - | 732 W/m² | - |
| 1777492298 | 25° C | 48% | 1014.8 hPa | 0 mm | - | 727 W/m² | - |
| 1777491996 | 24.44° C | 48% | 1015.1 hPa | 0 mm | - | 729 W/m² | - |
| 1777491692 | 25° C | 44% | 1015.2 hPa | 0 mm | - | 739 W/m² | - |
| 1777491390 | 24.44° C | 47% | 1015.2 hPa | 0 mm | - | 760 W/m² | - |
| 1777491087 | 24.44° C | 45% | 1015 hPa | 0 mm | - | 762 W/m² | - |
| 1777490782 | 23.33° C | 47% | 1015.2 hPa | 0 mm | - | 766 W/m² | - |
| 1777490479 | 23.89° C | 48% | 1015.1 hPa | 0 mm | - | 741 W/m² | - |
| 1777490175 | 24.44° C | 45% | 1015.1 hPa | 0 mm | - | 708 W/m² | - |
| 1777489872 | 23.89° C | 46% | 1015.4 hPa | 0 mm | - | 704 W/m² | - |
| 1777489570 | 22.78° C | 46% | 1015.3 hPa | 0 mm | - | 762 W/m² | - |
| 1777489266 | 23.33° C | 47% | 1015.6 hPa | 0 mm | - | 574 W/m² | - |
| 1777488963 | 23.33° C | 50% | 1015.6 hPa | 0 mm | - | 792 W/m² | - |
| 1777488660 | 23.33° C | 51% | 1015.7 hPa | 0 mm | - | 781 W/m² | - |
| 1777488358 | 23.33° C | 48% | 1015.7 hPa | 0 mm | - | 811 W/m² | - |
| 1777488056 | 22.78° C | 50% | 1015.5 hPa | 0 mm | - | 824 W/m² | - |
| 1777487754 | 22.22° C | 50% | 1015.8 hPa | 0 mm | - | 840 W/m² | - |
| 1777487451 | 22.78° C | 51% | 1015.8 hPa | 0 mm | - | 840 W/m² | - |
| 1777487149 | 22.22° C | 52% | 1015.8 hPa | 0 mm | - | 797 W/m² | - |
| 1777486844 | 22.78° C | 50% | 1015.7 hPa | 0 mm | - | 790 W/m² | - |
* Rain latest hour (hover to see other rain measurements)
** Current wind speed in m/s (hover to see current wind gust speed)